Location: Dodge City Community College Clyde Tombaugh Astronomy Center
(37.7756°N, 100.0412°W)
Time: 14:04:56
(UTC+00:00)

USA 215 - Visible Passes

Search period start: 25 June 2022 00:00
Search period end: 05 July 2022 00:00
Orbit: 1099 x 1108 km, 123.0° (Epoch: 10 June)

Date Brightness Start Highest point End Pass type
(mag) Time Alt. Az. Time Alt. Az. Time Alt. Az.
25 Jun 4.0 08:28:40 10° ENE 08:34:43 39° SE 08:36:43 32° SSE visible
25 Jun 3.7 10:11:27 10° NE 10:17:48 56° NW 10:24:04 10° WSW visible
26 Jun 4.9 07:47:29 10° E 07:51:36 17° ESE 07:52:09 17° SE visible
26 Jun 3.3 09:28:35 10° NE 09:35:09 80° SE 09:39:30 23° SW visible
27 Jun 4.0 08:46:13 10° ENE 08:52:16 39° SE 08:54:56 28° S visible
27 Jun 3.7 10:29:00 10° NE 10:35:21 56° NW 10:41:42 10° WSW visible
28 Jun 4.9 08:05:01 10° E 08:09:09 18° ESE 08:10:24 17° SE visible
28 Jun 3.3 09:46:09 10° NE 09:52:42 81° SE 09:57:44 18° SW visible
29 Jun 4.0 09:03:45 10° ENE 09:09:49 40° SE 09:13:13 24° S visible
29 Jun 3.7 10:46:33 10° NE 10:52:53 55° NW 10:59:14 10° WSW visible
30 Jun 4.9 08:22:32 10° E 08:26:42 18° ESE 08:28:41 16° SE visible
30 Jun 3.3 10:03:41 10° NE 10:10:15 81° SE 10:16:02 14° SW visible
01 Jul 4.1 09:21:18 10° ENE 09:27:22 40° SE 09:31:32 19° S visible
02 Jul 5.0 08:40:03 10° E 08:44:15 18° ESE 08:47:03 14° SSE visible
02 Jul 3.3 10:21:14 10° NE 10:27:48 82° SE 10:34:21 10° SW visible
03 Jul 4.1 09:38:50 10° ENE 09:44:55 40° SE 09:49:55 15° S visible
04 Jul 5.1 08:57:35 10° E 09:01:49 18° ESE 09:05:28 12° SSE visible
04 Jul 3.4 10:38:47 10° NE 10:45:21 82° SE 10:51:54 10° SW visible
